(79) Eurynome
(79) Eurynome
Epoch 2007 Oct. 27.0 TT = JDT 2454400.5 (M-c) Goffin
M 226.63681 (2000.0) P Q
n 0.25753884 Peri. 200.52320 +0.67882097 -0.73340815
a 2.4466634 Node 206.76520 +0.68444041 +0.64983824
e 0.1909437 Incl. 4.61796 +0.26597635 +0.19955639
P 3.83 H 7.96 G 0.25
From 844 observations at 78 oppositions, 1863-1991, mean residual 1".05.
An explanation of the orbital
elements is available.These orbital elements are also available in forms suitable for loading into a number of popular planetarium-type software programs.
Personalized ephemerides for this object (and others) can be generated using the MPES.
Date TT R. A. (2000) Decl. Delta r Elong. Phase V 2008 06 29 22 26.81 -03 08.8 1.695 2.373 120.1 21.8 11.9 2008 07 04 22 27.93 -02 52.6 1.634 2.362 124.4 20.8 11.8 2008 07 09 22 28.43 -02 40.4 1.576 2.352 128.9 19.7 11.7 2008 07 14 22 28.27 -02 32.5 1.521 2.341 133.6 18.3 11.5 2008 07 19 22 27.45 -02 29.2 1.470 2.330 138.5 16.8 11.4 2008 07 24 22 25.96 -02 30.7 1.423 2.320 143.5 15.1 11.3 2008 07 29 22 23.82 -02 37.4 1.380 2.309 148.7 13.2 11.2 2008 08 03 22 21.06 -02 49.2 1.343 2.298 154.0 11.2 11.0 2008 08 08 22 17.73 -03 06.0 1.311 2.288 159.4 9.0 10.9 2008 08 13 22 13.94 -03 27.6 1.284 2.277 164.7 6.7 10.7 2008 08 18 22 09.80 -03 53.3 1.264 2.267 169.6 4.6 10.6 2008 08 23 22 05.44 -04 22.6 1.249 2.256 172.9 3.2 10.5 2008 08 28 22 01.01 -04 54.5 1.241 2.246 171.9 3.6 10.5 2008 09 02 21 56.66 -05 28.2 1.240 2.236 167.7 5.5 10.6 2008 09 07 21 52.58 -06 02.5 1.244 2.226 162.4 7.9 10.7 2008 09 12 21 48.91 -06 36.3 1.254 2.215 156.9 10.3 10.8 2008 09 17 21 45.78 -07 08.8 1.270 2.205 151.3 12.6 10.9 2008 09 22 21 43.29 -07 39.0 1.291 2.195 145.8 14.9 11.0 2008 09 27 21 41.52 -08 06.3 1.317 2.186 140.5 17.0 11.0 2008 10 02 21 40.54 -08 30.1 1.348 2.176 135.3 18.9 11.1 2008 10 07 21 40.36 -08 49.9 1.382 2.166 130.3 20.6 11.2 2008 10 12 21 41.01 -09 05.5 1.419 2.157 125.4 22.1 11.3 2008 10 17 21 42.45 -09 16.8 1.460 2.148 120.8 23.5 11.4 2008 10 22 21 44.66 -09 23.6 1.502 2.139 116.3 24.6 11.5 2008 10 27 21 47.60 -09 26.1 1.547 2.130 112.0 25.6 11.6 2008 11 01 21 51.25 -09 24.1 1.594 2.121 107.9 26.4 11.7 2008 11 06 21 55.54 -09 17.7 1.642 2.112 103.9 27.1 11.7 2008 11 11 22 00.44 -09 07.1 1.690 2.104 100.1 27.6 11.8 2008 11 16 22 05.89 -08 52.4 1.740 2.096 96.5 28.0 11.9